Time,TemperatureF,DewpointF,PressureIn,WindDirection,WindDirectionDegrees,WindSpeedMPH,WindSpeedGustMPH,Humidity,HourlyPrecipIn,Conditions,Clouds,dailyrainin,SoftwareType,DateUTC
2013-07-11 00:00:00,68.0,67.7,29.94,NNE,22,0.0,1.0,99,0.00,,OVC,0.00,VWS V14.01,2013-07-11 04:00:00,
2013-07-11 01:00:00,68.3,68.0,29.92,NNE,22,0.0,1.0,99,0.00,,OVC,0.00,VWS V14.01,2013-07-11 05:00:00,
2013-07-11 02:00:00,68.5,68.2,29.93,East,90,0.0,2.0,99,0.00,,OVC,0.00,VWS V14.01,2013-07-11 06:00:00,
2013-07-11 03:00:00,67.8,67.2,29.93,WSW,248,0.0,1.0,98,0.00,,OVC,0.00,VWS V14.01,2013-07-11 07:00:00,
2013-07-11 04:00:00,67.1,66.5,29.92,WSW,248,0.0,0.0,98,0.00,,OVC,0.00,VWS V14.01,2013-07-11 08:00:00,
2013-07-11 05:00:00,67.6,67.3,29.91,WSW,248,0.0,0.0,99,0.00,,OVC,0.00,VWS V14.01,2013-07-11 09:00:00,
2013-07-11 06:00:00,67.5,67.2,29.92,WSW,248,0.0,0.0,99,0.00,,OVC,0.00,VWS V14.01,2013-07-11 10:00:00,
2013-07-11 07:00:00,67.6,67.3,29.93,WSW,248,0.0,0.0,99,0.00,,OVC,0.00,VWS V14.01,2013-07-11 11:00:00,
2013-07-11 08:00:00,68.1,67.8,29.94,WSW,248,0.0,1.0,99,0.00,,OVC,0.00,VWS V14.01,2013-07-11 12:00:00,
2013-07-11 09:00:00,68.3,68.0,29.94,WSW,248,0.0,3.0,99,0.00,,OVC,0.00,VWS V14.01,2013-07-11 13:00:00,
2013-07-11 10:00:00,70.2,69.6,29.94,WSW,248,0.0,2.0,98,0.00,,OVC,0.00,VWS V14.01,2013-07-11 14:00:00,
2013-07-11 11:00:00,69.9,69.3,29.95,WSW,248,0.0,1.0,98,0.00,,OVC,0.00,VWS V14.01,2013-07-11 15:00:00,
2013-07-11 12:00:00,70.3,69.7,29.94,WSW,248,0.0,2.0,98,0.00,,OVC,0.00,VWS V14.01,2013-07-11 16:00:00,
2013-07-11 13:00:00,71.4,70.2,29.93,WSW,248,0.0,2.0,96,0.00,,OVC,0.00,VWS V14.01,2013-07-11 17:00:00,
2013-07-11 14:00:00,71.5,70.0,29.92,WSW,248,0.0,1.0,95,0.01,,OVC,0.01,VWS V14.01,2013-07-11 18:00:00,
2013-07-11 15:00:00,72.7,71.2,29.90,WSW,248,0.0,2.0,95,0.01,,OVC,0.01,VWS V14.01,2013-07-11 19:00:00,
2013-07-11 16:00:00,74.2,72.1,29.88,WSW,248,0.0,2.0,93,0.00,,OVC,0.01,VWS V14.01,2013-07-11 20:00:00,
2013-07-11 17:00:00,75.0,73.2,29.86,WSW,248,0.0,2.0,94,0.00,,OVC,0.01,VWS V14.01,2013-07-11 21:00:00,
2013-07-11 18:00:00,75.4,72.9,29.86,WSW,248,0.0,3.0,92,0.00,,OVC,0.01,VWS V14.01,2013-07-11 22:00:00,
2013-07-11 19:00:00,73.4,71.9,29.86,WSW,248,0.0,1.0,95,0.00,,OVC,0.01,VWS V14.01,2013-07-11 23:00:00,
2013-07-11 20:00:00,72.9,71.7,29.86,WSW,248,0.0,1.0,96,0.00,,OVC,0.01,VWS V14.01,2013-07-12 00:00:00,
2013-07-11 21:00:00,71.7,70.5,29.86,WSW,248,0.0,1.0,96,0.00,,OVC,0.01,VWS V14.01,2013-07-12 01:00:00,
2013-07-11 22:00:00,71.1,70.5,29.87,WSW,248,0.0,0.0,98,0.00,,OVC,0.01,VWS V14.01,2013-07-12 02:00:00,
2013-07-11 23:00:00,70.3,69.7,29.89,WSW,248,0.0,0.0,98,0.00,,OVC,0.01,VWS V14.01,2013-07-12 03:00:00,